Fleming-Mason (FGX)

 

Airport Diagram
No Airport Diagram Available
Current Weather/Forecast (MVFR Conditions)
METAR KFGX 280555Z AUTO 02008KT 5SM -SN BKN012 OVC036 M04/M05 A3033 RMK AO2 T10391055 11006 21039 400151039
TAF

Airport Information

All Charts
General
Chart Name View
TAKEOFF MINIMUMS
ALTERNATE MINIMUMS
TAKEOFF MINIMUMS
ALTERNATE MINIMUMS

Approaches
Chart Name Download
RNAV (GPS) RWY 07
RNAV (GPS) RWY 25
VOR/DME-A
RNAV (GPS) RWY 07
RNAV (GPS) RWY 25
VOR/DME-A


Airport Statistics
Departures Arrivals Local
All Collected Stats since June 2016: 5 4 0
2021 Stats: 0 0 0
January Stats: 0 0 0

Inbound Traffic (Arrivals) - 0

No inbound traffic.


Outbound Traffic (Departures) - 0

No outbound traffic.


Local Traffic (Pattern) - 0

No local traffic.